DAL3587 KPHL-KATL

Flight info

Callsign DAL3587
Flight time N/A
Altitude 38000
Route STOEN REEFI EMI J48 MOL FLASK OZZZI2
Aircraft A20N/M-SDE2E3FGHIRWXY/LB1

Departure

Time 2026-05-05 00:13
Airport Philadelphia International Airport (KPHL)

Arrival

Time N/A
Airport Hartsfield Jackson Atlanta International Airport (KATL)
Time Latitude Longitude Altitude Speed Heading
2026-05-04 23:53 39.87409 -75.24467 20 ft 0 kts 116°
2026-05-05 00:07 39.87415 -75.24482 11 ft 3 kts 136°
2026-05-05 00:07 39.87428 -75.24500 11 ft 3 kts 116°
2026-05-05 00:07 39.87436 -75.24524 24 ft 3 kts 108°
2026-05-05 00:08 39.87443 -75.24547 20 ft 3 kts 133°
2026-05-05 00:08 39.87450 -75.24555 19 ft 1 kts 196°
2026-05-05 00:08 39.87465 -75.24549 20 ft 2 kts 196°
2026-05-05 00:08 39.87470 -75.24547 20 ft 0 kts 196°
2026-05-05 00:10 39.87465 -75.24549 20 ft 5 kts 196°
2026-05-05 00:11 39.87375 -75.24574 20 ft 18 kts 186°
2026-05-05 00:11 39.87258 -75.24525 23 ft 19 kts 160°
2026-05-05 00:11 39.87178 -75.24389 23 ft 21 kts 104°
2026-05-05 00:11 39.87141 -75.24188 27 ft 25 kts 103°
2026-05-05 00:12 39.87014 -75.24059 23 ft 25 kts 171°
2026-05-05 00:12 39.86866 -75.23946 19 ft 27 kts 153°
2026-05-05 00:12 39.86784 -75.24015 18 ft 17 kts 252°
2026-05-05 00:12 39.86738 -75.24248 17 ft 63 kts 255°
2026-05-05 00:13 39.86534 -75.25274 33 ft 163 kts 255°
2026-05-05 00:13 39.86268 -75.26727 1017 ft 170 kts 253°
2026-05-05 00:13 39.85984 -75.28280 2187 ft 181 kts 253°
2026-05-05 00:13 39.85680 -75.29940 3314 ft 195 kts 254°
2026-05-05 00:14 39.85358 -75.31731 4405 ft 211 kts 255°
2026-05-05 00:14 39.85009 -75.33671 5399 ft 231 kts 256°
2026-05-05 00:14 39.84629 -75.35788 6432 ft 247 kts 257°
2026-05-05 00:14 39.84235 -75.37991 7682 ft 251 kts 258°
2026-05-05 00:15 39.84079 -75.40261 9001 ft 255 kts 269°
2026-05-05 00:15 39.84052 -75.42597 10228 ft 260 kts 270°
2026-05-05 00:15 39.84046 -75.45040 10996 ft 283 kts 270°
2026-05-05 00:15 39.84039 -75.47712 11589 ft 307 kts 270°
2026-05-05 00:16 39.84028 -75.50537 12395 ft 321 kts 270°
2026-05-05 00:16 39.84011 -75.53463 13465 ft 327 kts 270°
2026-05-05 00:16 39.83992 -75.56439 14456 ft 332 kts 270°
2026-05-05 00:16 39.83972 -75.59465 15471 ft 337 kts 270°
2026-05-05 00:17 39.83951 -75.62536 16459 ft 342 kts 270°
2026-05-05 00:17 39.83929 -75.65648 17437 ft 346 kts 270°
2026-05-05 00:17 39.83905 -75.68807 18357 ft 352 kts 270°
2026-05-05 00:17 39.83880 -75.72008 19152 ft 357 kts 270°
2026-05-05 00:18 39.83852 -75.75272 19964 ft 362 kts 270°
2026-05-05 00:18 39.83821 -75.78565 20762 ft 367 kts 269°
2026-05-05 00:18 39.83601 -75.81868 21489 ft 374 kts 263°
2026-05-05 00:18 39.83206 -75.85237 22292 ft 378 kts 263°
2026-05-05 00:19 39.82814 -75.88644 23067 ft 384 kts 263°
2026-05-05 00:19 39.82419 -75.92103 23760 ft 389 kts 263°
2026-05-05 00:19 39.82021 -75.95600 24408 ft 393 kts 263°
2026-05-05 00:19 39.81618 -75.99130 25040 ft 397 kts 263°
2026-05-05 00:20 39.81209 -76.02697 25646 ft 401 kts 263°
2026-05-05 00:20 39.80794 -76.06305 26248 ft 405 kts 263°
2026-05-05 00:20 39.80373 -76.09954 26820 ft 410 kts 263°
2026-05-05 00:20 39.79945 -76.13628 27389 ft 414 kts 262°
2026-05-05 00:21 39.79314 -76.17312 27887 ft 420 kts 256°
2026-05-05 00:21 39.78345 -76.20928 28419 ft 426 kts 249°
2026-05-05 00:21 39.77080 -76.24435 28924 ft 430 kts 246°
2026-05-05 00:21 39.75765 -76.27946 29402 ft 434 kts 246°
2026-05-05 00:22 39.74462 -76.31445 29881 ft 437 kts 246°
2026-05-05 00:22 39.73133 -76.35020 30332 ft 440 kts 246°
2026-05-05 00:22 39.71796 -76.38613 30769 ft 443 kts 246°
2026-05-05 00:22 39.70449 -76.42226 31252 ft 445 kts 246°
2026-05-05 00:23 39.69100 -76.45837 31831 ft 444 kts 246°
2026-05-05 00:23 39.67755 -76.49435 32452 ft 442 kts 246°
2026-05-05 00:23 39.66412 -76.53025 33018 ft 441 kts 246°
2026-05-05 00:23 39.65072 -76.56601 33615 ft 440 kts 246°
2026-05-05 00:24 39.63735 -76.60164 34163 ft 438 kts 246°
2026-05-05 00:24 39.62406 -76.63701 34720 ft 435 kts 246°
2026-05-05 00:24 39.61081 -76.67222 35263 ft 433 kts 246°
2026-05-05 00:24 39.59764 -76.70722 35790 ft 430 kts 246°
2026-05-05 00:25 39.58452 -76.74201 36300 ft 428 kts 246°
2026-05-05 00:25 39.57146 -76.77662 36796 ft 426 kts 246°
2026-05-05 00:25 39.55849 -76.81096 37299 ft 423 kts 246°
2026-05-05 00:25 39.54572 -76.84471 37724 ft 422 kts 246°
2026-05-05 00:26 39.53278 -76.87889 37901 ft 419 kts 246°
2026-05-05 00:26 39.50515 -76.94527 37898 ft 421 kts 239°
2026-05-05 00:27 39.46805 -77.00447 37904 ft 426 kts 228°
2026-05-05 00:27 39.42285 -77.05455 37908 ft 429 kts 222°
2026-05-05 00:28 39.37661 -77.10311 37915 ft 428 kts 223°
2026-05-05 00:28 39.33029 -77.15179 37923 ft 429 kts 222°
2026-05-05 00:29 39.28423 -77.20009 37924 ft 428 kts 222°
2026-05-05 00:29 39.23785 -77.24862 37928 ft 429 kts 222°